SCP
-0 -0 -0 -0 0 0 0 0 0 0 0 0 0 0 0 0 0 0 0 0 0 0 0 0 0 0 0 0 0 0 0 0 0 0 0 0 0 0 0 0 0 0 -0 0 0 0 0
-0 -0 -0 -0 0 0 0 0 0 0 0 0 0 0 0 0 0 0 0 0 0 0 0 0 0 0 0 -0 0 0 0 0 0 0 0 0 0 -0 0 0 -0 0 0 0 0 0 0
-0 -0 0 -0 0 0 0 0 0 0 0 0 0 0 0 0 0 0 0 0 0 0 0 0 0 0 0 -0 0 0 0 0 0 0 0 0 0 0 -0 0 0 -0 0 0 -0 -0 0
0 0 0 -0 0 0 0 0 0 0 0 0 0 0 0 0 0 0 0 0 0 0 0 0 0 0 -0 0 0 0 0 0 0 0 0 -0 0 0 -0 0 -0 -0 -0 0 -0 0 0
0 0 0 -0 -0 0 0 0 0 0 0 0 0 0 0 0 0 0 0 0 0 0 0 0 0 0 0 0 0 0 0 0 0 0 0 0 0 0 0 -0 -0 -0 -0 0 0 0 0
0 0 0 0 0 0 0 0 0 0 0 0 0 0 0 0 0 0 0 0 0 0 0 0 0 0 0 0 0 0 0 0 0 0 0 0 0 -0 -0 -0 0 0 0 0 -0 0 0
0 0 0 -0 -0 -0 -0 -0 -0 0 0 0 0 0 0 0 0 0 0 0 0 0 0 -0 0 0 0 0 0 0 0 0 0 0 0 0 0 0 -0 0 -0 -0 0 0 0 0 0
0 -0 -0 -0 -0 -0 -0 -0 -0 -0 0 0 0 0 0 0 0 0 0 0 0 0 0 -0 0 0 0 0 0 0 0 0 0 0 0 0 0 -0 0 -0 0 0 0 0 0 0 0
0 -0 -0 -0 -0 -0 -0 -0 -0 -0 -0 0 0 0 0 0 0 0 0 0 0 0 0 0 0 0 0 0 0 0 0 0 0 0 0 -0 0 0 -0 0 0 0 0 0 0 0 0
-0 -0 -0 -0 -0 -0 -0 -0 -0 -0 -0 -0 0 0 0 0 0 0 0 0 0 0 0 0 0 -0 0 0 0 0 0 0 0 0 0 0 0 -0 -0 0 -0 0 0 0 0 0 -0
-0 -0 -0 -0 -0 -0 -0 -0 -0 -0 -0 -0 -0 0 0 0 0 0 0 0 -0 0 0 0 0 0 0 -0 0 -0 0 0 0 0 0 0 0 0 0 0 0 -0 -0 -0 -0 0 0
0 -0 -0 -0 -0 -0 -0 -0 -0 -0 -0 -0 0 0 0 0 0 0 0 0 0 0 0 0 0 0 -0 -0 -0 0 0 -0 -0 0 0 0 0 0 0 0 0 0 0 -0 -0 0 0
0 -0 -0 -0 -0 -0 -0 -0 -0 -0 -0 -0 -0 0 0 0 0 0 0 0 0 0 -0 -0 0 0 -0 0 0 0 -0 0 0 0 0 0 -0 0 -0 0 -0 -0 0 0 -0 -0 0
0 -0 -0 -0 -0 -0 -0 -0 -0 -0 -0 -0 -0 0 0 0 0 0 0 0 0 0 -0 -0 -0 0 -0 0 0 -0 0 0 0 0 0 0 0 0 0 -0 -0 -0 0 0 0 0 0
0 0 -0 -0 -0 -0 -0 -0 -0 -0 -0 -0 0 0 0 0 0 0 0 -0 0 0 0 0 0 -0 -0 -0 -0 0 0 0 0 0 -0 -0 0 -0 -0 -0 -0 -0 0 0 0 0 0
0 -0 -0 -0 -0 -0 -0 -0 -0 -0 -0 -0 0 0 0 0 0 0 -0 0 0 0 0 0 0 -0 -0 -0 -0 -0 -0 0 0 -0 -0 0 0 -0 -0 0 0 0 0 0 0 0 0
-0 -0 -0 -0 -0 -0 -0 -0 -0 -0 -0 0 0 0 0 0 0 0 -0 0 0 0 0 -0 -0 -0 -0 -0 -0 0 0 -0 0 0 0 0 0 -0 0 -0 -0 -0 0 0 0 0 0
0 -0 -0 -0 -0 -0 -0 -0 -0 -0 -0 0 0 0 0 0 0 0 -0 0 0 0 0 0 0 0 -0 -0 -0 -0 0 0 0 0 0 0 0 -0 0 0 0 0 0 0 0 0 0
0 0 -0 -0 -0 -0 -0 -0 -0 0 0 0 0 0 0 0 0 -0 0 0 0 0 0 0 0 0 0 0 0 0 0 0 0 0 0 0 0 0 0 0 0 0 -0 -0 0 0 0
0 0 -0 -0 -0 -0 -0 -0 -0 0 0 0 0 0 0 0 0 -0 0 0 0 0 0 0 0 0 0 0 0 0 0 0 0 0 0 0 0 0 0 0 0 0 0 -0 -0 0 0
0 0 0 -0 0 -0 0 -0 -0 0 0 0 0 0 0 0 0 0 0 0 0 0 0 0 0 0 0 0 0 0 0 0 0 0 0 0 0 0 0 0 0 0 0 0 0 0 0
0 0 0 0 0 0 0 0 0 0 0 0 0 0 0 0 0 0 0 0 0 0 0 0 0 0 0 0 0 0 0 0 0 0 0 0 0 0 0 0 0 0 0 0 0 0 0
0 0 0 0 0 0 0 0 0 0 0 0 0 0 0 0 0 0 0 0 0 0 0 0 0 0 0 0 0 0 0 0 0 0 0 0 0 0 0 0 0 0 0 0 0 0 0
0 0 0 0 0 0 0 0 0 0 0 0 0 0 0 0 0 0 0 0 0 0 0 0 0 0 0 0 0 0 0 0 0 0 0 0 0 0 0 0 0 0 0 0 0 0 0
0 0 0 0 0 0 0 0 0 0 0 0 0 0 0 0 0 0 0 0 0 0 0 0 0 0 0 0 0 0 0 0 0 0 0 0 0 0 0 0 0 0 0 0 0 0 0
0 0 0 0 0 0 0 0 0 0 0 0 0 0 0 0 0 0 0 0 0 0 0 0 0 0 0 0 0 0 0 0 0 0 0 0 0 0 0 0 0 0 0 0 0 0 0
0 0 0 0 0 0 0 0 0 0 0 0 0 0 0 0 0 0 0 0 0 0 0 0 0 0 0 0 0 0 0 0 0 0 0 0 0 0 0 0 0 0 0 0 0 0 0
0 0 0 0 0 0 0 0 0 0 0 0 0 0 0 0 0 0 0 0 0 0 0 0 0 0 0 0 0 0 0 0 0 0 0 0 0 0 0 0 0 0 0 0 0 0 0
0 0 0 0 0 0 0 0 0 0 0 0 0 0 0 0 0 0 0 0 0 0 0 0 0 0 0 0 0 0 0 0 0 0 0 0 0 0 0 0 0 0 0 0 0 0 0
Wind_Speed_500mb
32 31 30 29 29 27 27 26 27 27 27 27 27 25 21 17 17 18 17 17 16 15 15 15 15 13 13 14 22 12 3 13 23 27 33 39 49 40 10 7 9 12 13 30 26 53 43
33 32 32 32 31 30 29 29 28 29 28 28 27 25 20 16 16 16 16 16 15 14 14 13 14 13 13 13 12 13 16 16 25 25 29 37 47 61 34 11 8 17 24 28 24 24 46
34 34 34 34 34 33 32 31 31 30 29 28 27 25 20 14 15 15 15 15 15 14 13 13 13 15 23 39 14 14 18 19 16 20 36 39 53 47 25 16 47 4 12 10 14 13 15
35 35 35 35 35 35 35 34 33 31 29 29 27 25 19 13 14 15 14 14 13 12 12 11 12 15 22 21 28 24 7 25 20 21 34 42 40 43 9 24 26 4 6 7 8 17 30
35 35 36 36 36 37 38 36 33 31 31 30 27 25 18 13 12 14 13 12 13 12 12 12 10 11 22 15 24 15 13 16 15 16 23 32 41 23 14 9 11 7 6 9 5 20 12
36 36 36 37 37 39 40 39 35 33 32 31 28 24 18 11 11 13 13 13 13 13 13 11 13 9 28 24 33 29 29 21 23 26 37 41 17 7 10 11 8 9 7 7 14 11 11
34 36 37 38 38 39 41 40 36 34 33 32 28 24 17 10 11 14 16 9 6 6 22 24 15 14 1 13 18 29 30 26 25 25 10 38 4 15 24 13 24 18 4 8 13 14 8
33 35 37 38 39 40 42 42 38 36 34 32 28 23 15 10 13 17 20 16 10 6 17 38 48 35 46 34 20 34 32 21 11 11 8 11 14 27 14 28 2 13 11 11 8 10 7
36 33 36 38 39 41 42 44 40 37 36 32 29 22 13 9 13 18 24 25 10 23 7 13 41 60 40 15 19 29 28 22 8 9 10 10 27 17 18 4 5 10 4 2 2 8 7
39 36 36 38 40 41 43 45 42 39 38 34 29 20 11 10 10 18 24 3 18 17 8 11 15 19 31 21 10 25 23 24 3 17 10 14 34 22 20 6 10 4 6 4 2 8 5
41 41 39 39 41 42 44 45 44 41 39 35 30 19 11 20 11 23 12 10 26 3 3 9 16 7 32 21 5 27 34 38 19 23 11 17 7 12 7 12 10 15 7 1 3 1 7
41 42 42 40 41 43 45 46 46 42 41 37 30 19 15 24 25 9 7 11 2 9 10 8 20 13 12 16 16 4 44 51 7 7 13 22 38 7 15 6 6 5 6 17 10 7 5
41 42 43 43 42 44 46 48 49 45 43 38 30 17 21 29 15 3 13 3 9 5 9 10 14 8 13 12 7 15 12 10 11 3 11 12 12 9 6 7 15 18 14 8 10 10 7
40 41 43 43 45 45 47 49 51 47 45 37 25 13 24 32 15 10 11 8 5 10 12 6 12 13 14 10 12 16 15 11 13 8 5 4 16 13 6 13 17 7 15 11 6 4 6
39 42 43 44 44 46 47 51 53 48 45 33 13 9 25 35 18 3 7 4 12 12 9 6 9 10 7 10 12 7 18 16 16 19 16 6 13 12 15 10 20 7 4 16 8 5 11
37 42 44 45 44 45 47 50 54 48 42 24 7 7 25 38 23 9 8 11 10 9 7 5 17 14 16 12 11 14 17 17 17 22 13 8 5 6 9 9 4 12 9 5 7 6 4
38 41 45 45 44 44 46 49 54 48 39 18 4 7 28 44 25 7 5 14 14 33 15 14 11 12 17 15 22 18 24 13 34 17 24 10 5 15 8 7 6 10 9 10 9 9 11
39 42 43 46 44 41 43 46 51 54 38 16 4 4 43 53 9 6 6 12 11 32 62 17 16 16 17 16 14 13 19 18 24 17 15 9 10 2 3 6 11 10 11 13 9 12 2
39 42 43 45 44 40 40 41 44 48 45 34 17 8 48 54 6 5 13 19 25 28 19 13 7 6 8 18 13 7 9 11 34 10 12 6 4 6 17 16 9 16 8 7 9 5 1
38 41 43 46 44 40 37 38 39 41 37 29 6 5 19 48 15 10 8 19 11 33 18 2 6 10 16 10 2 13 8 8 20 17 17 14 7 13 11 13 6 8 8 9 12 9 8
41 40 42 45 43 39 35 35 36 37 33 11 3 6 7 5 12 16 6 13 27 15 13 5 11 10 6 9 14 8 9 11 18 15 11 10 7 7 2 8 9 3 3 13 10 5 8
44 38 40 44 42 37 32 32 33 31 25 5 6 8 12 10 18 12 12 12 14 23 7 13 4 14 11 5 17 12 19 9 2 6 8 9 3 6 9 6 7 6 15 6 7 9 10
44 37 39 42 40 34 30 28 29 28 26 5 9 6 7 10 14 6 5 13 25 9 20 14 10 13 23 13 26 37 26 18 9 7 6 7 8 7 4 5 9 13 17 25 19 19 15
42 39 40 40 36 31 27 23 23 24 23 21 13 13 8 7 7 5 19 21 16 11 3 11 26 14 6 21 33 30 27 19 21 6 9 9 8 6 5 8 8 2 22 40 40 28 27
48 46 40 34 31 28 24 20 18 18 19 18 11 4 7 3 12 15 32 18 31 6 14 11 22 19 15 20 10 11 12 12 12 8 13 12 10 7 8 6 6 8 8 4 12 13 10
39 37 32 27 25 25 20 18 16 16 15 13 5 8 3 3 11 20 13 18 7 10 11 6 16 15 16 8 9 6 5 11 4 8 10 15 13 10 5 7 6 8 9 3 18 5 5
27 25 24 22 21 23 17 17 15 15 14 10 8 2 3 9 13 24 9 10 19 10 1 5 9 6 6 6 6 5 5 7 5 11 6 7 7 10 4 6 2 6 20 7 9 10 13
19 15 15 15 18 19 15 15 15 14 12 5 10 2 3 8 29 13 12 17 25 25 4 13 6 15 10 8 6 6 4 2 8 3 8 8 9 3 6 9 5 8 11 12 14 17 23
14 10 9 12 15 20 13 15 15 15 12 6 16 3 10 18 18 16 13 4 12 25 16 13 7 5 5 8 3 3 6 6 6 1 10 6 8 10 5 9 3 40 43 33 24 22 24
Wind_Direction_500mb
13 11 6 2 357 352 348 345 343 341 340 337 333 324 311 283 260 253 251 253 254 255 254 253 255 257 273 268 250 137 29 279 276 281 277 294 302 307 265 261 121 126 176 156 176 172 157
11 11 8 5 359 354 350 347 344 340 341 340 335 329 316 288 258 246 245 246 249 249 249 249 249 259 264 265 207 218 254 273 267 272 278 288 296 309 263 346 288 180 171 173 202 196 158
9 8 7 5 2 358 352 348 346 344 342 342 338 331 319 291 257 240 237 239 243 242 242 243 244 257 257 234 182 213 250 270 270 269 283 303 300 311 338 337 339 235 128 215 227 205 134
6 6 4 2 1 359 355 350 346 344 342 340 338 332 320 289 254 238 230 233 236 235 234 233 236 264 259 235 252 258 221 262 264 269 278 289 300 309 346 318 343 166 62 131 249 178 163
4 3 2 0 358 357 356 351 347 344 342 340 337 331 319 287 248 232 223 224 227 221 220 218 237 248 263 220 226 190 245 269 273 251 269 291 303 297 327 70 355 344 230 185 205 196 167
2 1 360 358 357 355 355 352 348 344 341 339 336 330 319 280 238 221 214 211 218 209 209 208 220 278 245 221 205 232 218 228 269 274 302 299 304 13 341 78 244 259 229 241 172 227 176
359 359 357 356 355 353 353 351 347 343 341 338 335 329 318 270 225 209 205 190 203 225 224 209 215 214 293 219 278 232 208 219 241 279 277 299 35 253 254 215 246 221 205 294 194 213 126
354 355 356 355 353 352 351 350 347 344 341 337 333 328 313 253 212 210 206 204 152 36 284 240 241 259 261 272 302 233 204 216 221 243 355 355 271 256 256 273 275 21 18 8 23 165 151
353 351 354 354 352 350 350 349 346 343 340 336 332 324 305 235 208 217 224 195 162 330 259 280 229 238 254 315 229 217 196 217 217 256 270 177 259 290 256 324 17 356 122 0 213 353 10
359 353 349 351 350 349 348 348 345 342 339 335 330 319 290 210 205 211 194 128 275 304 49 268 190 250 239 247 275 213 218 214 265 226 245 240 260 239 259 189 111 24 279 132 86 66 228
359 358 349 347 347 347 346 346 344 340 337 333 327 310 262 199 194 190 142 35 341 268 33 191 189 215 211 192 162 208 218 210 226 235 109 246 296 309 236 205 146 218 238 137 277 359 35
355 356 354 346 345 344 344 344 343 338 335 331 324 300 241 216 223 160 282 307 117 51 256 186 151 199 166 207 235 271 200 213 269 275 274 265 276 254 209 193 174 345 10 24 42 94 40
348 351 352 349 344 342 342 341 342 339 334 330 320 282 222 206 181 176 313 317 53 155 295 169 169 155 175 206 217 176 175 186 197 156 285 307 289 276 217 45 355 68 56 352 347 10 230
342 346 348 347 345 342 341 340 341 340 334 331 314 252 212 191 180 358 16 68 200 244 241 222 141 160 184 151 243 186 134 201 254 122 51 216 315 191 205 169 190 200 148 149 253 217 226
336 341 345 344 343 342 340 339 341 343 338 336 308 239 209 172 190 349 11 108 215 219 279 123 84 136 245 212 158 139 174 206 224 172 175 164 274 301 166 169 132 271 207 188 148 72 86
334 339 342 344 341 342 340 340 341 346 345 348 327 279 203 179 184 193 76 224 242 224 336 190 185 167 205 196 156 154 182 220 235 203 154 236 315 310 282 118 185 159 186 29 18 179 100
330 335 339 342 340 339 340 340 342 347 353 357 356 291 161 176 172 167 189 238 271 271 280 188 243 166 209 179 177 191 197 258 210 235 158 154 119 298 21 18 226 349 20 24 108 109 154
330 332 334 338 339 337 339 340 344 347 0 348 347 7 166 176 122 187 189 228 297 295 308 270 188 189 169 204 175 175 207 224 215 154 139 193 134 127 218 267 127 145 108 112 107 301 177
330 330 334 336 338 335 337 338 344 349 355 360 341 301 172 175 153 251 272 266 275 285 287 283 256 136 195 186 156 166 131 352 123 101 146 175 23 40 351 350 13 75 65 143 126 90 111
323 327 330 334 335 332 333 335 340 346 346 339 329 15 163 205 231 163 291 289 292 315 290 268 327 56 7 52 21 164 126 66 74 91 94 87 86 140 172 217 216 2 61 66 97 75 289
311 320 324 330 332 329 329 332 337 348 344 322 252 267 26 251 271 257 144 302 305 306 301 19 20 22 41 39 47 39 56 58 31 63 59 95 96 87 233 83 84 222 353 61 86 190 113
303 309 319 325 328 325 324 329 336 353 347 12 357 8 338 289 269 237 188 248 246 285 254 299 120 12 60 134 145 106 99 83 94 18 71 3 135 112 53 77 144 35 345 13 66 149 81
300 305 313 320 322 319 319 325 335 350 2 346 349 289 314 304 323 58 222 274 283 334 315 330 121 93 60 352 135 118 117 139 149 150 101 78 104 68 337 335 67 28 343 78 63 34 118
301 305 308 313 314 312 312 318 330 343 359 7 4 360 351 288 323 329 329 314 303 240 166 43 57 95 51 103 94 84 70 54 107 103 124 121 91 89 184 25 62 214 89 79 75 52 60
294 299 302 303 304 304 305 306 316 328 338 344 341 4 10 273 286 309 339 333 348 135 115 71 78 49 83 65 63 47 354 19 347 53 115 119 108 66 111 137 129 12 20 352 115 46 38
294 297 296 292 293 298 297 296 300 311 323 332 117 60 36 280 234 330 316 344 318 340 18 93 78 63 51 73 73 106 176 198 241 95 6 62 88 111 116 140 187 240 290 45 120 67 2
303 300 292 284 286 293 291 287 288 296 313 336 167 21 310 273 287 351 356 326 347 339 66 346 343 72 66 69 78 127 227 201 166 144 182 36 22 129 125 115 321 269 342 55 112 204 66
305 309 296 285 290 296 285 277 278 282 299 330 158 224 329 273 271 284 1 340 341 10 61 321 43 14 33 72 114 218 130 264 80 30 159 141 124 147 84 93 211 304 22 110 159 112 60
310 313 294 299 298 293 281 272 268 271 283 304 178 224 272 260 263 274 289 286 303 319 359 33 97 158 141 95 68 107 46 46 146 22 360 34 179 154 135 174 101 92 106 105 94 76 88
Wind_Speed_850mb
32 31 30 29 29 27 27 26 27 27 27 27 27 25 21 17 17 18 17 17 16 15 15 15 15 13 13 14 22 12 3 13 23 27 33 39 49 40 10 7 9 12 13 30 26 53 43
33 32 32 32 31 30 29 29 28 29 28 28 27 25 20 16 16 16 16 16 15 14 14 13 14 13 13 13 12 13 16 16 25 25 29 37 47 61 34 11 8 17 24 28 24 24 46
34 34 34 34 34 33 32 31 31 30 29 28 27 25 20 14 15 15 15 15 15 14 13 13 13 15 23 39 14 14 18 19 16 20 36 39 53 47 25 16 47 4 12 10 14 13 15
35 35 35 35 35 35 35 34 33 31 29 29 27 25 19 13 14 15 14 14 13 12 12 11 12 15 22 21 28 24 7 25 20 21 34 42 40 43 9 24 26 4 6 7 8 17 30
35 35 36 36 36 37 38 36 33 31 31 30 27 25 18 13 12 14 13 12 13 12 12 12 10 11 22 15 24 15 13 16 15 16 23 32 41 23 14 9 11 7 6 9 5 20 12
36 36 36 37 37 39 40 39 35 33 32 31 28 24 18 11 11 13 13 13 13 13 13 11 13 9 28 24 33 29 29 21 23 26 37 41 17 7 10 11 8 9 7 7 14 11 11
34 36 37 38 38 39 41 40 36 34 33 32 28 24 17 10 11 14 16 9 6 6 22 24 15 14 1 13 18 29 30 26 25 25 10 38 4 15 24 13 24 18 4 8 13 14 8
33 35 37 38 39 40 42 42 38 36 34 32 28 23 15 10 13 17 20 16 10 6 17 38 48 35 46 34 20 34 32 21 11 11 8 11 14 27 14 28 2 13 11 11 8 10 7
36 33 36 38 39 41 42 44 40 37 36 32 29 22 13 9 13 18 24 25 10 23 7 13 41 60 40 15 19 29 28 22 8 9 10 10 27 17 18 4 5 10 4 2 2 8 7
39 36 36 38 40 41 43 45 42 39 38 34 29 20 11 10 10 18 24 3 18 17 8 11 15 19 31 21 10 25 23 24 3 17 10 14 34 22 20 6 10 4 6 4 2 8 5
41 41 39 39 41 42 44 45 44 41 39 35 30 19 11 20 11 23 12 10 26 3 3 9 16 7 32 21 5 27 34 38 19 23 11 17 7 12 7 12 10 15 7 1 3 1 7
41 42 42 40 41 43 45 46 46 42 41 37 30 19 15 24 25 9 7 11 2 9 10 8 20 13 12 16 16 4 44 51 7 7 13 22 38 7 15 6 6 5 6 17 10 7 5
41 42 43 43 42 44 46 48 49 45 43 38 30 17 21 29 15 3 13 3 9 5 9 10 14 8 13 12 7 15 12 10 11 3 11 12 12 9 6 7 15 18 14 8 10 10 7
40 41 43 43 45 45 47 49 51 47 45 37 25 13 24 32 15 10 11 8 5 10 12 6 12 13 14 10 12 16 15 11 13 8 5 4 16 13 6 13 17 7 15 11 6 4 6
39 42 43 44 44 46 47 51 53 48 45 33 13 9 25 35 18 3 7 4 12 12 9 6 9 10 7 10 12 7 18 16 16 19 16 6 13 12 15 10 20 7 4 16 8 5 11
37 42 44 45 44 45 47 50 54 48 42 24 7 7 25 38 23 9 8 11 10 9 7 5 17 14 16 12 11 14 17 17 17 22 13 8 5 6 9 9 4 12 9 5 7 6 4
38 41 45 45 44 44 46 49 54 48 39 18 4 7 28 44 25 7 5 14 14 33 15 14 11 12 17 15 22 18 24 13 34 17 24 10 5 15 8 7 6 10 9 10 9 9 11
39 42 43 46 44 41 43 46 51 54 38 16 4 4 43 53 9 6 6 12 11 32 62 17 16 16 17 16 14 13 19 18 24 17 15 9 10 2 3 6 11 10 11 13 9 12 2
39 42 43 45 44 40 40 41 44 48 45 34 17 8 48 54 6 5 13 19 25 28 19 13 7 6 8 18 13 7 9 11 34 10 12 6 4 6 17 16 9 16 8 7 9 5 1
38 41 43 46 44 40 37 38 39 41 37 29 6 5 19 48 15 10 8 19 11 33 18 2 6 10 16 10 2 13 8 8 20 17 17 14 7 13 11 13 6 8 8 9 12 9 8
41 40 42 45 43 39 35 35 36 37 33 11 3 6 7 5 12 16 6 13 27 15 13 5 11 10 6 9 14 8 9 11 18 15 11 10 7 7 2 8 9 3 3 13 10 5 8
44 38 40 44 42 37 32 32 33 31 25 5 6 8 12 10 18 12 12 12 14 23 7 13 4 14 11 5 17 12 19 9 2 6 8 9 3 6 9 6 7 6 15 6 7 9 10
44 37 39 42 40 34 30 28 29 28 26 5 9 6 7 10 14 6 5 13 25 9 20 14 10 13 23 13 26 37 26 18 9 7 6 7 8 7 4 5 9 13 17 25 19 19 15
42 39 40 40 36 31 27 23 23 24 23 21 13 13 8 7 7 5 19 21 16 11 3 11 26 14 6 21 33 30 27 19 21 6 9 9 8 6 5 8 8 2 22 40 40 28 27
48 46 40 34 31 28 24 20 18 18 19 18 11 4 7 3 12 15 32 18 31 6 14 11 22 19 15 20 10 11 12 12 12 8 13 12 10 7 8 6 6 8 8 4 12 13 10
39 37 32 27 25 25 20 18 16 16 15 13 5 8 3 3 11 20 13 18 7 10 11 6 16 15 16 8 9 6 5 11 4 8 10 15 13 10 5 7 6 8 9 3 18 5 5
27 25 24 22 21 23 17 17 15 15 14 10 8 2 3 9 13 24 9 10 19 10 1 5 9 6 6 6 6 5 5 7 5 11 6 7 7 10 4 6 2 6 20 7 9 10 13
19 15 15 15 18 19 15 15 15 14 12 5 10 2 3 8 29 13 12 17 25 25 4 13 6 15 10 8 6 6 4 2 8 3 8 8 9 3 6 9 5 8 11 12 14 17 23
14 10 9 12 15 20 13 15 15 15 12 6 16 3 10 18 18 16 13 4 12 25 16 13 7 5 5 8 3 3 6 6 6 1 10 6 8 10 5 9 3 40 43 33 24 22 24
Wind_Direction_850mb
13 11 6 2 357 352 348 345 343 341 340 337 333 324 311 283 260 253 251 253 254 255 254 253 255 257 273 268 250 137 29 279 276 281 277 294 302 307 265 261 121 126 176 156 176 172 157
11 11 8 5 359 354 350 347 344 340 341 340 335 329 316 288 258 246 245 246 249 249 249 249 249 259 264 265 207 218 254 273 267 272 278 288 296 309 263 346 288 180 171 173 202 196 158
9 8 7 5 2 358 352 348 346 344 342 342 338 331 319 291 257 240 237 239 243 242 242 243 244 257 257 234 182 213 250 270 270 269 283 303 300 311 338 337 339 235 128 215 227 205 134
6 6 4 2 1 359 355 350 346 344 342 340 338 332 320 289 254 238 230 233 236 235 234 233 236 264 259 235 252 258 221 262 264 269 278 289 300 309 346 318 343 166 62 131 249 178 163
4 3 2 0 358 357 356 351 347 344 342 340 337 331 319 287 248 232 223 224 227 221 220 218 237 248 263 220 226 190 245 269 273 251 269 291 303 297 327 70 355 344 230 185 205 196 167
2 1 360 358 357 355 355 352 348 344 341 339 336 330 319 280 238 221 214 211 218 209 209 208 220 278 245 221 205 232 218 228 269 274 302 299 304 13 341 78 244 259 229 241 172 227 176
359 359 357 356 355 353 353 351 347 343 341 338 335 329 318 270 225 209 205 190 203 225 224 209 215 214 293 219 278 232 208 219 241 279 277 299 35 253 254 215 246 221 205 294 194 213 126
354 355 356 355 353 352 351 350 347 344 341 337 333 328 313 253 212 210 206 204 152 36 284 240 241 259 261 272 302 233 204 216 221 243 355 355 271 256 256 273 275 21 18 8 23 165 151
353 351 354 354 352 350 350 349 346 343 340 336 332 324 305 235 208 217 224 195 162 330 259 280 229 238 254 315 229 217 196 217 217 256 270 177 259 290 256 324 17 356 122 0 213 353 10
359 353 349 351 350 349 348 348 345 342 339 335 330 319 290 210 205 211 194 128 275 304 49 268 190 250 239 247 275 213 218 214 265 226 245 240 260 239 259 189 111 24 279 132 86 66 228
359 358 349 347 347 347 346 346 344 340 337 333 327 310 262 199 194 190 142 35 341 268 33 191 189 215 211 192 162 208 218 210 226 235 109 246 296 309 236 205 146 218 238 137 277 359 35
355 356 354 346 345 344 344 344 343 338 335 331 324 300 241 216 223 160 282 307 117 51 256 186 151 199 166 207 235 271 200 213 269 275 274 265 276 254 209 193 174 345 10 24 42 94 40
348 351 352 349 344 342 342 341 342 339 334 330 320 282 222 206 181 176 313 317 53 155 295 169 169 155 175 206 217 176 175 186 197 156 285 307 289 276 217 45 355 68 56 352 347 10 230
342 346 348 347 345 342 341 340 341 340 334 331 314 252 212 191 180 358 16 68 200 244 241 222 141 160 184 151 243 186 134 201 254 122 51 216 315 191 205 169 190 200 148 149 253 217 226
336 341 345 344 343 342 340 339 341 343 338 336 308 239 209 172 190 349 11 108 215 219 279 123 84 136 245 212 158 139 174 206 224 172 175 164 274 301 166 169 132 271 207 188 148 72 86
334 339 342 344 341 342 340 340 341 346 345 348 327 279 203 179 184 193 76 224 242 224 336 190 185 167 205 196 156 154 182 220 235 203 154 236 315 310 282 118 185 159 186 29 18 179 100
330 335 339 342 340 339 340 340 342 347 353 357 356 291 161 176 172 167 189 238 271 271 280 188 243 166 209 179 177 191 197 258 210 235 158 154 119 298 21 18 226 349 20 24 108 109 154
330 332 334 338 339 337 339 340 344 347 0 348 347 7 166 176 122 187 189 228 297 295 308 270 188 189 169 204 175 175 207 224 215 154 139 193 134 127 218 267 127 145 108 112 107 301 177
330 330 334 336 338 335 337 338 344 349 355 360 341 301 172 175 153 251 272 266 275 285 287 283 256 136 195 186 156 166 131 352 123 101 146 175 23 40 351 350 13 75 65 143 126 90 111
323 327 330 334 335 332 333 335 340 346 346 339 329 15 163 205 231 163 291 289 292 315 290 268 327 56 7 52 21 164 126 66 74 91 94 87 86 140 172 217 216 2 61 66 97 75 289
311 320 324 330 332 329 329 332 337 348 344 322 252 267 26 251 271 257 144 302 305 306 301 19 20 22 41 39 47 39 56 58 31 63 59 95 96 87 233 83 84 222 353 61 86 190 113
303 309 319 325 328 325 324 329 336 353 347 12 357 8 338 289 269 237 188 248 246 285 254 299 120 12 60 134 145 106 99 83 94 18 71 3 135 112 53 77 144 35 345 13 66 149 81
300 305 313 320 322 319 319 325 335 350 2 346 349 289 314 304 323 58 222 274 283 334 315 330 121 93 60 352 135 118 117 139 149 150 101 78 104 68 337 335 67 28 343 78 63 34 118
301 305 308 313 314 312 312 318 330 343 359 7 4 360 351 288 323 329 329 314 303 240 166 43 57 95 51 103 94 84 70 54 107 103 124 121 91 89 184 25 62 214 89 79 75 52 60
294 299 302 303 304 304 305 306 316 328 338 344 341 4 10 273 286 309 339 333 348 135 115 71 78 49 83 65 63 47 354 19 347 53 115 119 108 66 111 137 129 12 20 352 115 46 38
294 297 296 292 293 298 297 296 300 311 323 332 117 60 36 280 234 330 316 344 318 340 18 93 78 63 51 73 73 106 176 198 241 95 6 62 88 111 116 140 187 240 290 45 120 67 2
303 300 292 284 286 293 291 287 288 296 313 336 167 21 310 273 287 351 356 326 347 339 66 346 343 72 66 69 78 127 227 201 166 144 182 36 22 129 125 115 321 269 342 55 112 204 66
305 309 296 285 290 296 285 277 278 282 299 330 158 224 329 273 271 284 1 340 341 10 61 321 43 14 33 72 114 218 130 264 80 30 159 141 124 147 84 93 211 304 22 110 159 112 60
310 313 294 299 298 293 281 272 268 271 283 304 178 224 272 260 263 274 289 286 303 319 359 33 97 158 141 95 68 107 46 46 146 22 360 34 179 154 135 174 101 92 106 105 94 76 88